Location: ?
(35.4064°N, 139.3593°E)
Time: 12:58:10
(UTC+00:00)

ARIANE 6 FM1 Upper Stage - Pass Details

Date: 16 December 2025
Orbit: 522 x 610 km, 62.0° (Epoch: 13 January)

Event Time Altitude Azimuth Distance (km) Brightness Sun altitude
Exits shadow 19:18:58 16° 160° (SSE) 1,442 5.0 -28.9°
Maximum altitude 19:21:09 25° 116° (ESE) 1,098 4.7 -28.5°
Drops below altitude 10° 19:24:29 10° 60° (ENE) 1,783 5.8 -27.8°
Sets 19:26:55 0° 47° (NE) 2,667 6.6 -27.4°
